#timestamp,LO_Frequency,Hit,StdDev 
1581476415.5,286047001.2,N
1581476435.3,286047002.7,Y
1581476455.1,286047000.8,P
1581476475.9,286046998.5,P
1581476495.7,286047000.8,N
1581476515.6,286046998.5,N
1581476535.4,286047000.7,N
1581476555.2,286046998.1,N
1581476575.1,286047000.5,N
1581476576.0,286047000.5,N
1581476595.8,286046999.9,N
1581476615.6,286047002.2,N
1581476635.5,286047002.3,N
1581476655.3,286046999.8,N
1581476675.2,286047001.7,N
1581476695.0,286047002.6,N
1581476695.9,286047002.6,N
1581476715.7,286047002.2,N
1581476735.6,286047002.1,N
1581476755.4,286047002.6,N
1581476775.3,286047001.6,N
1581476795.1,286047003.5,N
1581476796.0,286047003.5,N
1581476815.8,286047001.8,N
1581476835.7,286047001.7,N
1581476855.5,286047003.7,N
1581476875.3,286047002.9,N
1581476895.2,286047003.0,N
1581476915.0,286047003.3,N
1581476915.9,286047003.3,N
1581476935.8,286047005.9,Y
1581476955.6,286047001.3,P
1581476975.4,286047002.3,P
1581476995.3,286047002.6,P
1581477015.1,286047000.7,N
1581477035.9,286047000.4,N
1581477055.7,286047002.4,Y
1581477075.5,286046999.4,P
1581477095.4,286046997.5,N
1581477115.2,286046994.9,P
1581477135.0,286046995.4,N
1581477135.9,286046995.4,N
1581477155.8,286046997.3,N
1581477175.6,286046997.9,N
1581477195.5,286046997.5,N
1581477215.3,286046997.2,N
1581477235.1,286046998.9,N
1581477255.9,286047000.4,N
1581477275.7,286047000.6,N
1581477295.5,286047000.6,N
1581477315.4,286046998.6,N
1581477335.2,286046999.1,N
1581477355.1,286046998.8,N
1581477356.0,286046998.8,N
1581477375.8,286046998.4,N
1581477395.6,286047001.0,N
1581477415.5,286046999.3,N
1581477435.3,286046998.1,N
1581477455.1,286046998.7,N
1581477475.9,286047001.0,N
1581477495.7,286047011.9,Y
1581477515.6,286047001.9,P
1581477535.4,286047002.1,N
1581477555.2,286047001.3,N
1581477575.1,286047001.5,N
1581477576.0,286047001.5,N
1581477625.8,286047000.4,E
1581477635.8,286047001.0,N
1581477655.6,286046999.7,P
1581477675.4,286047001.0,N
1581477695.3,286046999.3,N
1581477715.1,286046996.8,Y
1581477735.9,286046996.8,P
1581477755.7,286046996.9,N
1581477775.5,286046998.7,N
1581477795.4,286046998.6,N
1581477815.2,286047000.5,N
1581477835.1,286047002.0,N
1581477836.0,286047002.0,N
1581477855.8,286046999.8,N
1581477875.6,286047000.9,N
1581477895.5,286047000.2,N
1581477915.3,286047002.6,N
1581477935.2,286047001.1,N
1581477955.9,286047000.7,N
1581477975.7,286046999.7,N
1581477995.6,286047001.9,N
1581478015.4,286047000.1,N
1581478035.2,286046999.8,N
1581478055.1,286047000.1,N
1581478056.0,286047000.1,N
1581478075.8,286047000.4,N
1581478095.7,286046998.9,N
1581478115.5,286046997.2,N
1581478135.3,286046996.5,N
1581478155.2,286046997.4,N
1581478175.0,286046996.5,N
1581478175.9,286046996.5,N
1581478195.8,286046996.6,N
1581478215.6,286046999.5,N
1581478235.4,286046997.0,N
1581478255.3,286046996.7,N
1581478275.1,286046998.3,N
1581478295.8,286046999.4,N
1581478315.7,286046999.4,N
1581478335.5,286046995.5,N
1581478355.4,286046995.1,N
1581478375.2,286046996.0,N
1581478395.0,286046994.6,N
1581478395.9,286046994.6,N
1581478415.8,286046993.7,N
1581478435.6,286046993.3,N
1581478455.5,286046995.9,N
1581478475.3,286046995.6,N
1581478495.1,286046997.1,N
1581478515.9,286046996.9,N
1581478535.7,286046996.8,N
1581478555.6,286046998.1,N
1581478575.4,286047000.7,N
1581478595.2,286047000.9,N
1581478615.1,286046999.5,N
1581478616.0,286046999.5,N
1581478635.8,286046998.7,N
1581478655.6,286046998.3,N
1581478705.5,286046995.0,E
1581478715.4,286046996.8,N
1581478735.3,286047000.1,P
1581478755.1,286047000.3,N
1581478775.9,286046998.3,N
1581478795.7,286047000.7,N
1581478815.5,286046999.7,N
1581478835.4,286046999.9,N
1581478855.2,286047000.0,N
1581478875.0,286046998.2,N
1581478875.9,286046998.2,N
1581478895.8,286047002.8,N
1581478915.6,286047002.6,N
1581478935.5,286047001.5,N
1581478955.3,286047001.8,N
1581478975.1,286047004.0,N
1581478995.9,286047002.9,N
1581479015.7,286047006.0,Y
1581479035.6,286047003.5,P
1581479055.4,286047002.6,N
1581479075.2,286047002.6,N
1581479095.1,286047002.3,N
1581479096.0,286047002.3,N
1581479115.8,286047005.8,Y
1581479135.7,286047000.3,P
1581479155.5,286047001.9,N
1581479175.3,286047001.7,N
1581479195.2,286047002.2,N
1581479215.0,286047000.9,N
1581479215.9,286047000.9,N
1581479235.8,286047002.5,Y
1581479255.6,286047000.6,P
1581479275.4,286046999.8,N
1581479295.3,286047002.4,P
1581479315.1,286047002.8,N
1581479335.8,286046999.8,N
1581479355.7,286046998.3,N
1581479375.5,286046998.5,N
1581479395.4,286046998.3,N
1581479415.2,286047000.5,N
1581479435.0,286046998.1,N
1581479435.9,286046998.1,N
1581479455.8,286047000.0,N
1581479475.6,286047002.1,N
1581479495.4,286047004.3,N
1581479515.3,286047003.3,N
1581479535.1,286047004.8,N
1581479555.9,286047003.7,N
1581479575.7,286047002.5,N
1581479595.5,286047002.8,N
1581479615.4,286047001.5,N
1581479635.2,286047003.7,N
1581479655.1,286047003.3,N
1581479656.0,286047003.3,N
1581479675.8,286047003.2,N
1581479695.6,286047003.1,N
1581479715.5,286047004.1,N
1581479735.3,286047003.1,N
1581479755.1,286047002.0,N
1581479775.9,286047002.8,N
1581479795.7,286047002.8,N
1581479815.6,286047000.0,N
1581479835.4,286047000.8,N
1581479855.2,286047000.2,N
1581479875.1,286047001.1,N
1581479876.0,286047001.1,N
1581479895.8,286047000.4,N
1581479915.7,286047000.3,N
1581479935.5,286047000.6,N
1581479955.3,286047000.7,N
1581479975.2,286046999.3,N
1581479995.0,286046998.4,N
1581479995.9,286046998.4,N
